Time,TemperatureF,DewpointF,PressureIn,WindDirection,WindDirectionDegrees,WindSpeedMPH,WindSpeedGustMPH,Humidity,HourlyPrecipIn,Conditions,Clouds,dailyrainin,SolarRadiationWatts/m^2,SoftwareType,DateUTC
2013-05-12 00:01:00,68.0,40.0,-100.00,SW,215,6.0,15.0,36,0.00,,,0.00,0.000000,,2013-05-12 07:01:00,
2013-05-12 00:11:00,68.0,40.0,-100.00,SW,215,6.0,15.0,36,0.00,,,0.00,0.000000,,2013-05-12 07:11:00,
2013-05-12 00:42:00,67.0,41.0,-100.00,SW,228,9.0,19.0,38,0.00,,,0.00,0.000000,,2013-05-12 07:42:00,
2013-05-12 00:52:00,67.0,41.0,-100.00,SW,228,9.0,19.0,38,0.00,,,0.00,0.000000,,2013-05-12 07:52:00,
2013-05-12 01:02:00,67.0,41.0,-100.00,SW,228,9.0,19.0,38,0.00,,,0.00,0.000000,,2013-05-12 08:02:00,
2013-05-12 01:11:00,67.0,41.0,-100.00,SW,228,9.0,19.0,38,0.00,,,0.00,0.000000,,2013-05-12 08:11:00,
2013-05-12 01:42:00,67.0,41.0,-100.00,SW,229,9.0,17.0,39,-99.99,,,0.00,0.000000,,2013-05-12 08:42:00,
2013-05-12 02:43:00,66.0,42.0,-100.00,WSW,239,7.0,16.0,42,-99.99,,,-99.99,0.000000,,2013-05-12 09:43:00,
2013-05-12 02:53:00,66.0,42.0,-100.00,WSW,239,7.0,16.0,42,-99.99,,,-99.99,0.000000,,2013-05-12 09:53:00,
2013-05-12 03:03:00,66.0,42.0,-100.00,WSW,239,7.0,16.0,42,-99.99,,,-99.99,0.000000,,2013-05-12 10:03:00,
2013-05-12 03:42:00,65.0,43.0,-100.00,SW,228,5.0,16.0,45,-99.99,,,0.00,0.000000,,2013-05-12 10:42:00,
2013-05-12 03:52:00,65.0,43.0,-100.00,SW,228,5.0,16.0,45,-99.99,,,0.00,0.000000,,2013-05-12 10:52:00,
2013-05-12 04:02:00,65.0,43.0,-100.00,SW,228,5.0,16.0,45,-99.99,,,0.00,0.000000,,2013-05-12 11:02:00,
2013-05-12 04:11:00,65.0,43.0,-100.00,SW,228,5.0,16.0,45,-99.99,,,0.00,0.000000,,2013-05-12 11:11:00,
2013-05-12 04:42:00,63.0,46.0,-100.00,SW,235,7.0,16.0,53,-99.99,,,0.00,0.000000,,2013-05-12 11:42:00,
2013-05-12 05:42:00,62.0,44.0,-100.00,SW,230,7.0,12.0,52,-99.99,,,0.00,0.000000,,2013-05-12 12:42:00,
2013-05-12 05:52:00,62.0,44.0,-100.00,SW,230,7.0,12.0,52,-99.99,,,0.00,0.000000,,2013-05-12 12:52:00,
2013-05-12 06:01:00,62.0,44.0,-100.00,SW,230,7.0,12.0,52,-99.99,,,0.00,0.000000,,2013-05-12 13:01:00,
2013-05-12 06:11:00,62.0,44.0,-100.00,SW,230,7.0,12.0,52,-99.99,,,0.00,0.000000,,2013-05-12 13:11:00,
2013-05-12 06:42:00,61.0,47.0,-100.00,SW,229,4.0,13.0,59,0.00,,,0.00,10.000000,,2013-05-12 13:42:00,
2013-05-12 06:52:00,61.0,47.0,-100.00,SW,229,4.0,13.0,59,0.00,,,0.00,10.000000,,2013-05-12 13:52:00,
2013-05-12 07:01:00,61.0,47.0,-100.00,SW,229,4.0,13.0,59,0.00,,,0.00,10.000000,,2013-05-12 14:01:00,
2013-05-12 07:11:00,61.0,47.0,-100.00,SW,229,4.0,13.0,59,0.00,,,0.00,10.000000,,2013-05-12 14:11:00,
2013-05-12 07:42:00,62.0,49.0,-100.00,SW,225,3.0,10.0,63,0.00,,,-99.99,83.000000,,2013-05-12 14:42:00,
2013-05-12 07:52:00,62.0,49.0,-100.00,SW,225,3.0,10.0,63,0.00,,,-99.99,83.000000,,2013-05-12 14:52:00,
2013-05-12 08:01:00,62.0,49.0,-100.00,SW,225,3.0,10.0,63,0.00,,,-99.99,83.000000,,2013-05-12 15:01:00,
2013-05-12 08:11:00,62.0,49.0,-100.00,SW,225,3.0,10.0,63,0.00,,,-99.99,83.000000,,2013-05-12 15:11:00,
2013-05-12 08:42:00,63.0,51.0,-100.00,SW,220,6.0,14.0,66,0.00,,,0.00,194.000000,,2013-05-12 15:42:00,
2013-05-12 08:53:00,63.0,51.0,-100.00,SW,220,6.0,14.0,66,0.00,,,0.00,194.000000,,2013-05-12 15:53:00,
2013-05-12 09:02:00,63.0,51.0,-100.00,SW,220,6.0,14.0,66,0.00,,,0.00,194.000000,,2013-05-12 16:02:00,
2013-05-12 09:12:00,63.0,51.0,-100.00,SW,220,6.0,14.0,66,0.00,,,0.00,194.000000,,2013-05-12 16:12:00,
2013-05-12 09:42:00,67.0,52.0,-100.00,SW,220,6.0,16.0,58,0.00,,,0.00,371.000000,,2013-05-12 16:42:00,
2013-05-12 09:52:00,67.0,52.0,-100.00,SW,220,6.0,16.0,58,0.00,,,0.00,371.000000,,2013-05-12 16:52:00,
2013-05-12 10:01:00,67.0,52.0,-100.00,SW,220,6.0,16.0,58,0.00,,,0.00,371.000000,,2013-05-12 17:01:00,
2013-05-12 10:11:00,67.0,52.0,-100.00,SW,220,6.0,16.0,58,0.00,,,0.00,371.000000,,2013-05-12 17:11:00,
2013-05-12 10:42:00,71.0,52.0,-100.00,SSW,206,4.0,14.0,52,0.00,,,0.00,603.000000,,2013-05-12 17:42:00,
2013-05-12 10:52:00,71.0,52.0,-100.00,SSW,206,4.0,14.0,52,0.00,,,0.00,603.000000,,2013-05-12 17:52:00,
2013-05-12 11:01:00,71.0,52.0,-100.00,SSW,206,4.0,14.0,52,0.00,,,0.00,603.000000,,2013-05-12 18:01:00,
2013-05-12 11:12:00,71.0,52.0,-100.00,SSW,206,4.0,14.0,52,0.00,,,0.00,603.000000,,2013-05-12 18:12:00,
2013-05-12 11:42:00,71.0,52.0,-100.00,SSW,198,6.0,22.0,51,0.00,,,0.00,485.000000,,2013-05-12 18:42:00,
2013-05-12 11:52:00,71.0,52.0,-100.00,SSW,198,6.0,22.0,51,0.00,,,0.00,485.000000,,2013-05-12 18:52:00,
2013-05-12 12:01:00,71.0,52.0,-100.00,SSW,198,6.0,22.0,51,0.00,,,0.00,485.000000,,2013-05-12 19:01:00,
2013-05-12 12:11:00,71.0,52.0,-100.00,SSW,198,6.0,22.0,51,0.00,,,0.00,485.000000,,2013-05-12 19:11:00,
2013-05-12 12:42:00,71.0,52.0,-100.00,SW,214,5.0,16.0,52,0.00,,,0.00,550.000000,,2013-05-12 19:42:00,
2013-05-12 12:52:00,71.0,52.0,-100.00,SW,214,5.0,16.0,52,0.00,,,0.00,550.000000,,2013-05-12 19:52:00,
2013-05-12 13:02:00,71.0,52.0,-100.00,SW,214,5.0,16.0,52,0.00,,,0.00,550.000000,,2013-05-12 20:02:00,
2013-05-12 13:11:00,71.0,52.0,-100.00,SW,214,5.0,16.0,52,0.00,,,0.00,550.000000,,2013-05-12 20:11:00,
2013-05-12 13:42:00,71.0,51.0,-100.00,SSW,195,4.0,15.0,49,0.00,,,0.00,516.000000,,2013-05-12 20:42:00,
2013-05-12 13:52:00,71.0,51.0,-100.00,SSW,195,4.0,15.0,49,0.00,,,0.00,516.000000,,2013-05-12 20:52:00,
2013-05-12 14:01:00,71.0,51.0,-100.00,SSW,195,4.0,15.0,49,0.00,,,0.00,516.000000,,2013-05-12 21:01:00,
2013-05-12 14:11:00,71.0,51.0,-100.00,SSW,195,4.0,15.0,49,0.00,,,0.00,516.000000,,2013-05-12 21:11:00,
2013-05-12 14:33:00,72.0,48.0,-100.00,SSW,203,4.0,15.0,43,0.00,,,0.00,493.000000,,2013-05-12 21:33:00,
2013-05-12 14:42:00,72.0,48.0,-100.00,SSW,203,4.0,15.0,43,0.00,,,0.00,493.000000,,2013-05-12 21:42:00,
2013-05-12 14:53:00,72.0,48.0,-100.00,SSW,203,4.0,15.0,43,0.00,,,0.00,493.000000,,2013-05-12 21:53:00,
2013-05-12 15:02:00,72.0,48.0,-100.00,SSW,203,4.0,15.0,43,0.00,,,0.00,493.000000,,2013-05-12 22:02:00,
2013-05-12 15:12:00,72.0,48.0,-100.00,SSW,203,4.0,15.0,43,0.00,,,0.00,493.000000,,2013-05-12 22:12:00,
2013-05-12 15:42:00,72.0,43.0,-100.00,SSW,197,4.0,18.0,35,0.00,,,0.00,405.000000,,2013-05-12 22:42:00,
2013-05-12 15:52:00,72.0,43.0,-100.00,SSW,197,4.0,18.0,35,0.00,,,0.00,405.000000,,2013-05-12 22:52:00,
2013-05-12 16:02:00,72.0,43.0,-100.00,SSW,197,4.0,18.0,35,0.00,,,0.00,405.000000,,2013-05-12 23:02:00,
2013-05-12 16:11:00,72.0,43.0,-100.00,SSW,197,4.0,18.0,35,0.00,,,0.00,405.000000,,2013-05-12 23:11:00,
2013-05-12 16:42:00,71.0,43.0,-100.00,SSW,213,6.0,18.0,36,0.00,,,0.00,356.000000,,2013-05-12 23:42:00,
2013-05-12 16:52:00,71.0,43.0,-100.00,SSW,213,6.0,18.0,36,0.00,,,0.00,356.000000,,2013-05-12 23:52:00,
2013-05-12 17:01:00,71.0,43.0,-100.00,SSW,213,6.0,18.0,36,0.00,,,0.00,356.000000,,2013-05-13 00:01:00,
2013-05-12 17:11:00,71.0,43.0,-100.00,SSW,213,6.0,18.0,36,0.00,,,0.00,356.000000,,2013-05-13 00:11:00,
2013-05-12 17:42:00,70.0,48.0,-100.00,SW,222,4.0,14.0,46,0.00,,,0.00,276.000000,,2013-05-13 00:42:00,
2013-05-12 17:52:00,70.0,48.0,-100.00,SW,222,4.0,14.0,46,0.00,,,0.00,276.000000,,2013-05-13 00:52:00,
2013-05-12 18:01:00,70.0,48.0,-100.00,SW,222,4.0,14.0,46,0.00,,,0.00,276.000000,,2013-05-13 01:01:00,
2013-05-12 18:11:00,70.0,48.0,-100.00,SW,222,4.0,14.0,46,0.00,,,0.00,276.000000,,2013-05-13 01:11:00,
2013-05-12 18:42:00,70.0,49.0,-100.00,SSW,210,5.0,18.0,47,0.00,,,0.00,288.000000,,2013-05-13 01:42:00,
2013-05-12 18:52:00,70.0,49.0,-100.00,SSW,210,5.0,18.0,47,0.00,,,0.00,288.000000,,2013-05-13 01:52:00,
2013-05-12 19:01:00,70.0,49.0,-100.00,SSW,210,5.0,18.0,47,0.00,,,0.00,288.000000,,2013-05-13 02:01:00,
2013-05-12 19:11:00,70.0,49.0,-100.00,SSW,210,5.0,18.0,47,0.00,,,0.00,288.000000,,2013-05-13 02:11:00,
2013-05-12 19:32:00,66.0,48.0,-100.00,SW,223,5.0,15.0,52,0.00,,,0.00,341.000000,,2013-05-13 02:32:00,
2013-05-12 19:42:00,66.0,48.0,-100.00,SW,223,5.0,15.0,52,0.00,,,0.00,341.000000,,2013-05-13 02:42:00,
2013-05-12 19:52:00,66.0,48.0,-100.00,SW,223,5.0,15.0,52,0.00,,,0.00,341.000000,,2013-05-13 02:52:00,
2013-05-12 20:01:00,66.0,48.0,-100.00,SW,223,5.0,15.0,52,0.00,,,0.00,341.000000,,2013-05-13 03:01:00,
2013-05-12 20:11:00,66.0,48.0,-100.00,SW,223,5.0,15.0,52,0.00,,,0.00,341.000000,,2013-05-13 03:11:00,
2013-05-12 20:42:00,60.0,45.0,-100.00,SSW,211,6.0,18.0,58,0.00,,,0.00,82.000000,,2013-05-13 03:42:00,
2013-05-12 20:53:00,60.0,45.0,-100.00,SSW,211,6.0,18.0,58,0.00,,,0.00,82.000000,,2013-05-13 03:53:00,
2013-05-12 21:02:00,60.0,45.0,-100.00,SSW,211,6.0,18.0,58,0.00,,,0.00,82.000000,,2013-05-13 04:02:00,
2013-05-12 21:12:00,60.0,45.0,-100.00,SSW,211,6.0,18.0,58,0.00,,,0.00,82.000000,,2013-05-13 04:12:00,
2013-05-12 21:42:00,58.0,46.0,-100.00,SW,219,8.0,20.0,65,0.00,,,0.00,4.000000,,2013-05-13 04:42:00,
2013-05-12 21:52:00,58.0,46.0,-100.00,SW,219,8.0,20.0,65,0.00,,,0.00,4.000000,,2013-05-13 04:52:00,
2013-05-12 22:02:00,58.0,46.0,-100.00,SW,219,8.0,20.0,65,0.00,,,0.00,4.000000,,2013-05-13 05:02:00,
2013-05-12 22:11:00,58.0,46.0,-100.00,SW,219,8.0,20.0,65,0.00,,,0.00,4.000000,,2013-05-13 05:11:00,
2013-05-12 22:42:00,58.0,47.0,-100.00,SW,224,5.0,21.0,66,0.00,,,0.00,0.000000,,2013-05-13 05:42:00,
2013-05-12 22:52:00,58.0,47.0,-100.00,SW,224,5.0,21.0,66,0.00,,,0.00,0.000000,,2013-05-13 05:52:00,
2013-05-12 23:01:00,58.0,47.0,-100.00,SW,224,5.0,21.0,66,0.00,,,0.00,0.000000,,2013-05-13 06:01:00,
2013-05-12 23:11:00,58.0,47.0,-100.00,SW,224,5.0,21.0,66,0.00,,,0.00,0.000000,,2013-05-13 06:11:00,
2013-05-12 23:42:00,57.0,47.0,-100.00,South,174,1.0,16.0,70,0.00,,,0.00,0.000000,,2013-05-13 06:42:00,
2013-05-12 23:52:00,57.0,47.0,-100.00,South,174,1.0,16.0,70,0.00,,,0.00,0.000000,,2013-05-13 06:52:00,